OBJECT Y

基本信息
目录编号:
43133
目录名称:
OBJECT Y
国际标识:
2018-004Y
轨道中心:
EARTH
物体状态:
已陨落(2024-03-28)
发射日期:
2018-01-12 UTC
国别:
(TBD)
轨道信息
数据来源: 国际轨道数据
星历时间: 2024-03-23T15:46:57+0800
半长轴: 6532.441km
偏心率: 0.0012622
轨道倾角: 97.266°
近地点辐角: 265.061°
升交点赤经: 174.298°
平近点角: 94.925°
近地点: 146.06km
远地点: 162.552km
周期: 87.574分钟
每日圈数: 16.443324
详细信息
发射场:
SRI
轨道高度:
LEO
数据来源:
AOE Integration Group
参考系:
TEME
时间系统:
UTC
历元类型:
SGP4
2D轨道图
3D轨道图
轨道高度分析图
轨道倾角分析图
轨道综合分析图
查看轨道综合分析图